User: anonymous   Login
Location: Del Oro Observatory
(38.3044°N, 104.8119°W)
Time: 07:07:48
(UTC-06:00)
Language:

Cosmos 1602 Rocket - Orbit

View from above orbital plane
View from above orbital plane
View from above satellite
View from above satellite

Ground track
Ground track

The orbit data is extracted from the following two-line orbital elements,

1 15332U 84105B   16121.22738237  .00000144  00000-0  14740-4 0  9996
2 15332  82.5370 214.0484 0019723 293.6660 124.4933 14.83231805705371
Epoch (UTC): 30 April 2016 05:27:25
Eccentricity: 0.0019723
inclination: 82.5370°
perigee height: 605 km
apogee height: 633 km
right ascension of ascending node: 214.0484°
argument of perigee: 293.6660°
revolutions per day: 14.83231805
mean anomaly at epoch: 124.4933°
orbit number at epoch: 70537

The dashed part of the orbit path shows where the satellite is in the earth's shadow,  

DLR